When you browse on this site, cookies collect data to enhance your experience and personalize the content and advertising you see.
Visit our Privacy Policy to learn more. By continuing to use the site, you agree to this use of cookies and data.
  • In Lithuania
  • List of Countries
  • For 7 days
  • Water Temperature
  • Weather Map
  • Weather Widgets
  • user-avatar
    Login

    Hourly Weather Tatarya

    Today, 18 August, Sunday

    Time Temperature Precipitation Wind Pressure Humidity
    00:00 +15°C° 0 mm 1 mps 747 mmHg 76%
    01:00 +15°C° 0 mm 1 mps 747 mmHg 77%
    02:00 +15°C° 0 mm 1 mps 747 mmHg 75%
    03:00 +15°C° 0 mm 1 mps 747 mmHg 76%
    04:00 +15°C° 0 mm 1 mps 747 mmHg 76%
    05:00 +15°C° 0 mm 2 mps 747 mmHg 77%
    06:00 +16°C° 0 mm 2 mps 747 mmHg 76%
    07:00 +17°C° 0 mm 2 mps 747 mmHg 75%
    08:00 +19°C° 0 mm 2 mps 747 mmHg 73%
    09:00 +20°C° 0 mm 2 mps 747 mmHg 69%
    10:00 +23°C° 0 mm 2 mps 747 mmHg 65%
    11:00 +24°C° 0 mm 2 mps 747 mmHg 61%
    12:00 +25°C° 0 mm 3 mps 747 mmHg 59%
    13:00 +25°C° 0 mm 3 mps 747 mmHg 58%
    14:00 +26°C° 0 mm 3 mps 747 mmHg 56%
    15:00 +26°C° 0 mm 3 mps 747 mmHg 58%
    16:00 +26°C° 0 mm 3 mps 747 mmHg 61%
    17:00 +26°C° 0 mm 3 mps 747 mmHg 63%
    18:00 +24°C° 0 mm 3 mps 747 mmHg 68%
    19:00 +21°C° 0 mm 3 mps 747 mmHg 72%
    20:00 +20°C° 0 mm 3 mps 747 mmHg 77%
    21:00 +19°C° 0 mm 3 mps 747 mmHg 78%
    22:00 +19°C° 0 mm 3 mps 747 mmHg 79%
    23:00 +19°C° 0 mm 3 mps 747 mmHg 81%

    Tomorrow, 19 August, Monday

    Time Temperature Precipitation Wind Pressure Humidity
    00:00 +19°C° 0 mm 3 mps 747 mmHg 79%
    01:00 +19°C° 0 mm 3 mps 747 mmHg 78%
    02:00 +20°C° 0 mm 3 mps 747 mmHg 77%
    03:00 +19°C° 0 mm 3 mps 747 mmHg 79%
    04:00 +19°C° 0 mm 3 mps 747 mmHg 82%
    05:00 +18°C° 0 mm 3 mps 747 mmHg 85%
    06:00 +19°C° 0 mm 3 mps 747 mmHg 83%
    07:00 +20°C° 0 mm 3 mps 747 mmHg 81%
    08:00 +21°C° 0 mm 4 mps 747 mmHg 79%
    09:00 +23°C° 0 mm 4 mps 748 mmHg 75%
    10:00 +26°C° 0 mm 3 mps 748 mmHg 72%
    11:00 +27°C° 0 mm 3 mps 748 mmHg 68%
    12:00 +28°C° 0.4 mm 3 mps 748 mmHg 65%
    13:00 +29°C° 0.4 mm 3 mps 748 mmHg 62%
    14:00 +30°C° 0.4 mm 4 mps 749 mmHg 59%
    15:00 +30°C° 0.1 mm 3 mps 749 mmHg 61%
    16:00 +30°C° 0.1 mm 3 mps 749 mmHg 64%
    17:00 +30°C° 0.1 mm 3 mps 749 mmHg 66%
    18:00 +28°C° 0.2 mm 3 mps 749 mmHg 70%
    19:00 +26°C° 0.2 mm 3 mps 749 mmHg 75%
    20:00 +25°C° 0.2 mm 3 mps 749 mmHg 79%
    21:00 +24°C° 1.5 mm 3 mps 749 mmHg 84%
    22:00 +22°C° 1.5 mm 3 mps 749 mmHg 89%
    23:00 +21°C° 1.5 mm 3 mps 750 mmHg 93%

    Day after tomorrow, 20 August, Tuesday

    Time Temperature Precipitation Wind Pressure Humidity
    00:00 +20°C° 0.6 mm 2 mps 750 mmHg 94%
    01:00 +20°C° 0.6 mm 2 mps 750 mmHg 95%
    02:00 +20°C° 0.6 mm 1 mps 750 mmHg 96%
    03:00 +20°C° 0 mm 1 mps 751 mmHg 96%
    04:00 +19°C° 0 mm 2 mps 751 mmHg 97%
    05:00 +19°C° 0 mm 2 mps 751 mmHg 97%
    06:00 +19°C° 0 mm 2 mps 751 mmHg 95%
    07:00 +20°C° 0 mm 3 mps 752 mmHg 93%
    08:00 +21°C° 0 mm 3 mps 752 mmHg 90%
    09:00 +22°C° 0 mm 3 mps 752 mmHg 85%
    10:00 +24°C° 0 mm 2 mps 752 mmHg 79%
    11:00 +25°C° 0 mm 2 mps 753 mmHg 73%
    12:00 +25°C° 0 mm 2 mps 753 mmHg 70%
    13:00 +26°C° 0 mm 2 mps 753 mmHg 66%
    14:00 +27°C° 0 mm 2 mps 753 mmHg 63%
    15:00 +27°C° 0 mm 2 mps 753 mmHg 63%
    16:00 +27°C° 0 mm 2 mps 753 mmHg 64%
    17:00 +27°C° 0 mm 2 mps 753 mmHg 65%
    18:00 +25°C° 0 mm 2 mps 753 mmHg 72%
    19:00 +23°C° 0 mm 2 mps 753 mmHg 78%
    20:00 +21°C° 0 mm 2 mps 753 mmHg 85%
    21:00 +20°C° 0 mm 2 mps 753 mmHg 86%
    22:00 +20°C° 0 mm 2 mps 753 mmHg 87%
    23:00 +19°C° 0 mm 2 mps 753 mmHg 88%

    21 August, Wednesday

    Time Temperature Precipitation Wind Pressure Humidity
    00:00 +19°C° 0 mm 2 mps 753 mmHg 89%
    01:00 +18°C° 0 mm 2 mps 753 mmHg 90%
    02:00 +18°C° 0 mm 2 mps 753 mmHg 91%
    03:00 +18°C° 0 mm 2 mps 753 mmHg 92%
    04:00 +17°C° 0 mm 2 mps 753 mmHg 93%
    05:00 +17°C° 0 mm 3 mps 752 mmHg 94%
    06:00 +18°C° 0 mm 3 mps 752 mmHg 91%
    07:00 +19°C° 0 mm 3 mps 752 mmHg 88%
    08:00 +21°C° 0 mm 3 mps 752 mmHg 85%
    09:00 +22°C° 0.1 mm 3 mps 752 mmHg 82%
    10:00 +25°C° 0.1 mm 4 mps 751 mmHg 79%
    11:00 +26°C° 0.1 mm 4 mps 751 mmHg 76%
    12:00 +27°C° 0.3 mm 4 mps 751 mmHg 71%
    13:00 +27°C° 0.3 mm 3 mps 750 mmHg 67%
    14:00 +28°C° 0.3 mm 3 mps 750 mmHg 63%
    15:00 +28°C° 0 mm 3 mps 750 mmHg 65%
    16:00 +28°C° 0 mm 4 mps 750 mmHg 67%
    17:00 +28°C° 0 mm 4 mps 750 mmHg 68%
    18:00 +25°C° 0.2 mm 5 mps 751 mmHg 75%
    19:00 +20°C° 0.2 mm 5 mps 751 mmHg 82%
    20:00 +16°C° 0.2 mm 6 mps 751 mmHg 89%
    21:00 +15°C° 0 mm 6 mps 752 mmHg 89%
    22:00 +15°C° 0 mm 6 mps 752 mmHg 88%
    23:00 +15°C° 0 mm 6 mps 753 mmHg 87%

    22 August, Thursday

    Time Temperature Precipitation Wind Pressure Humidity
    00:00 +14°C° 0 mm 6 mps 753 mmHg 87%
    01:00 +14°C° 0 mm 5 mps 754 mmHg 86%
    02:00 +14°C° 0 mm 5 mps 754 mmHg 86%
    03:00 +13°C° 0 mm 5 mps 754 mmHg 88%
    04:00 +13°C° 0 mm 4 mps 754 mmHg 90%
    05:00 +12°C° 0 mm 4 mps 754 mmHg 92%
    06:00 +13°C° 0 mm 4 mps 754 mmHg 89%
    07:00 +13°C° 0 mm 4 mps 755 mmHg 87%
    08:00 +14°C° 0 mm 4 mps 755 mmHg 84%
    09:00 +17°C° 0 mm 4 mps 755 mmHg 79%
    10:00 +18°C° 0 mm 4 mps 755 mmHg 73%
    11:00 +20°C° 0 mm 4 mps 756 mmHg 68%
    12:00 +20°C° 0 mm 4 mps 755 mmHg 66%
    13:00 +21°C° 0 mm 4 mps 755 mmHg 64%
    14:00 +22°C° 0 mm 4 mps 755 mmHg 61%
    15:00 +22°C° 0 mm 4 mps 755 mmHg 62%
    16:00 +22°C° 0 mm 4 mps 755 mmHg 63%
    17:00 +21°C° 0 mm 4 mps 755 mmHg 64%
    18:00 +20°C° 0 mm 3 mps 755 mmHg 67%
    19:00 +18°C° 0 mm 3 mps 755 mmHg 71%
    20:00 +16°C° 0 mm 2 mps 755 mmHg 75%
    21:00 +15°C° 0 mm 2 mps 755 mmHg 76%
    22:00 +15°C° 0 mm 2 mps 756 mmHg 77%
    23:00 +14°C° 0 mm 2 mps 756 mmHg 78%

    23 August, Friday

    Time Temperature Precipitation Wind Pressure Humidity
    00:00 +14°C° 0 mm 2 mps 756 mmHg 80%
    01:00 +13°C° 0 mm 2 mps 756 mmHg 82%
    02:00 +13°C° 0 mm 2 mps 756 mmHg 84%
    03:00 +12°C° 0 mm 2 mps 756 mmHg 86%
    04:00 +12°C° 0 mm 2 mps 756 mmHg 88%
    05:00 +12°C° 0 mm 2 mps 755 mmHg 90%
    06:00 +13°C° 0 mm 2 mps 756 mmHg 86%
    07:00 +15°C° 0 mm 1 mps 756 mmHg 82%
    08:00 +16°C° 0 mm 1 mps 756 mmHg 78%
    09:00 +19°C° 0 mm 1 mps 756 mmHg 72%
    10:00 +19°C° 0 mm 2 mps 756 mmHg 67%
    11:00 +20°C° 0 mm 2 mps 756 mmHg 61%
    12:00 +21°C° 0 mm 2 mps 756 mmHg 57%
    13:00 +23°C° 0 mm 2 mps 756 mmHg 54%
    14:00 +23°C° 0 mm 2 mps 756 mmHg 50%
    15:00 +23°C° 0 mm 2 mps 756 mmHg 53%
    16:00 +23°C° 0 mm 2 mps 755 mmHg 55%
    17:00 +22°C° 0 mm 3 mps 755 mmHg 58%
    18:00 +20°C° 0 mm 2 mps 755 mmHg 64%
    19:00 +18°C° 0 mm 2 mps 755 mmHg 70%
    20:00 +16°C° 0 mm 2 mps 756 mmHg 76%
    21:00 +15°C° 0 mm 2 mps 756 mmHg 77%
    22:00 +15°C° 0 mm 2 mps 756 mmHg 79%
    23:00 +14°C° 0 mm 2 mps 756 mmHg 80%
    Show more